Portada
METAR-TAF:

METAR-TAF

Aeroports :

Mildura, Austràlia

latitud: 34-13-45S, longitud: 142-05-08E, altitud: 51 m

Observació

L'informe es va fer fa 37 minuts, a les 00:00 UTC
Vent 8 kt del Sud/Sud-Oest, variant entre Sud i Oest/Sud-Oest
Temperatura 19°C
Humitat 40%
Pressió 1017 hPa
Visibilitat 10 km o més

METAR: YMIA 220000Z AUTO 20008KT 170V240 9999 // NCD 19/05 Q1017

Hora: 11:37 (00:37 UTC)


TAF: manca

Observacions i pronòstics meteorològics de més de 4000 aeroports (METAR i TAF).

Les estacions disponibles són els punts grocs i vermells al mapa.

Posi el ratolí al punt desitjat per veure el nom de l'estació.

Feu clic per veure les observacions i els pronòstics meteorològics.

Per canviar el mapa: feu clic els botons verds amb una creu de color negre per apropar; al botó verd amb un guió per allunyar la imatge; o en les fletxes verdes per a mapes adjacents.


METAR-TAF: